User: anonymous   Login
Location: Lafig�re
(44.4503°N, 4.0357°E)
Time: 00:19:10
(UTC+00:00)
Language:

BlueWalker 3 - Orbit

View from above orbital plane
View from above orbital plane
View from above satellite
View from above satellite

Ground track
Ground track

The orbit data is extracted from the following two-line orbital elements,

1 53807U 22111AL  23036.20280195  .00003910  00000-0  19762-3 0  9992
2 53807  53.2061 316.4307 0013207  17.1658 342.9782 15.19310472 22379
Epoch (UTC): 05 February 2023 04:52:02
Eccentricity: 0.0013207
inclination: 53.2061°
perigee height: 499 km
apogee height: 517 km
right ascension of ascending node: 316.4307°
argument of perigee: 17.1658°
revolutions per day: 15.19310472
mean anomaly at epoch: 342.9782°
orbit number at epoch: 2237

The dashed part of the orbit path shows where the satellite is in the earth's shadow,  

DLR